Weather in Nutepelmen

Russia / Chukotka Autonomous Okrug     67°25′31″N   174°55′29″W
temp.,
°C
wind,
m/s
gust,
m/s
humid.,
%
clouds,
%
prec.,
mm/h
press.,
hPa
HPBL,
m
21 january, fri
fri2100:00−36wnw58100100 0.0 1029135
03:00−34wnw58100100 0.0 1028185
06:00−35wnw589996 0.1 1028152
09:00−34wnw58100100 0.0 1027139
12:00−34wnw5810078 0.1 1026130
15:00−34wnw589944 0.0 1024108
18:00−35wnw5710039 0.0 102395
21:00−35wnw6810063 0.0 102194
22 january, sat
sat2200:00−35wnw6910035 0.0 1019106
03:00−34wnw6910097 0.0 1016116
06:00−33nw71110074 0.0 1014147
09:00−29nw81494100 0.0 1011341
12:00−27nnw101593100 0.0 1009440
15:00−25nnw101491100 0.0 1007544
18:00−24n101489100 0.0 1005641
21:00−23n101388100 0.0 1005656
23 january, sun
sun2300:00−23n101388100 0.0 1004678
03:00−24n101492100 0.0 1002656
06:00−24n101492100 0.1 1001697
09:00−23n101392100 0.1 1001692
12:00−23n91391100 0.2 1000706
15:00−24n81198100 0.6 1000731
18:00−24n71098100 2.3 1001663
21:00−24nnw5798100 1.1 1002625
24 january, mon
mon2400:00−24nw469499 1.7 1003524
03:00−26wsw339989 0.1 100431
06:00−30w2210038 0.1 10069
09:00−31w11100100 0.0 10079
12:00−27nne0098100 0.0 100862
15:00−28nne22100100 0.0 100713
18:00−24nne4696100 0.3 1006264
21:00−23nnw5696100 0.4 1005326
25 january, tue
tue2500:00−23nw5696100 0.8 1004305
03:00−23wnw4595100 0.1 1004274
06:00−23wnw4695100 0.2 1005311
09:00−24wnw4796100 0.3 1005324
12:00−24wnw4795100 0.3 1005319
15:00−24wnw5994100 0.1 1005366
18:00−24wnw71194100 0.1 1005475
21:00−24wnw81493100 0.1 1005523